This is the latest recevied weather packets stored in our database for station/object K6CQU-13. If no packets are shown the sender has not sent any weather packets the latest 10 day(s).
| Time | Temp. | Humidity | Pressure | Rain* | Wind** | Luminosity | Snow |
|---|---|---|---|---|---|---|---|
| 1787784616 | 32.78° C | 24% | 1012 hPa | 0 mm | - | 663 W/m² | - |
| 1787784316 | 32.78° C | 24% | 1012 hPa | 0 mm | - | 675 W/m² | - |
| 1787784016 | 32.78° C | 22% | 1012.1 hPa | 0 mm | - | 685 W/m² | - |
| 1787783716 | 32.78° C | 22% | 1012.1 hPa | 0 mm | - | 696 W/m² | - |
| 1787783416 | 32.78° C | 24% | 1012.2 hPa | 0 mm | - | 706 W/m² | - |
| 1787783116 | 32.78° C | 24% | 1012.2 hPa | 0 mm | - | 718 W/m² | - |
| 1787782816 | 32.78° C | 23% | 1012.3 hPa | 0 mm | - | 728 W/m² | - |
| 1787782516 | 32.78° C | 21% | 1012.3 hPa | 0 mm | - | 739 W/m² | - |
| 1787782216 | 32.78° C | 21% | 1012.4 hPa | 0 mm | - | 746 W/m² | - |
| 1787781916 | 32.78° C | 21% | 1012.5 hPa | 0 mm | - | 755 W/m² | - |
| 1787781616 | 32.78° C | 20% | 1012.6 hPa | 0 mm | - | 763 W/m² | - |
| 1787781316 | 32.78° C | 21% | 1012.7 hPa | 0 mm | - | 773 W/m² | - |
| 1787781019 | 32.78° C | 23% | 1012.8 hPa | 0 mm | - | 781 W/m² | - |
| 1787780716 | 32.78° C | 23% | 1012.8 hPa | 0 mm | - | 789 W/m² | - |
| 1787780416 | 32.78° C | 23% | 1013 hPa | 0 mm | - | 796 W/m² | - |
| 1787780116 | 32.78° C | 24% | 1013 hPa | 0 mm | - | 798 W/m² | - |
| 1787779816 | 32.22° C | 24% | 1013.1 hPa | 0 mm | - | 807 W/m² | - |
| 1787779516 | 32.22° C | 23% | 1013.2 hPa | 0 mm | - | 813 W/m² | - |
| 1787779216 | 32.22° C | 23% | 1013.2 hPa | 0 mm | - | 820 W/m² | - |
| 1787778916 | 32.78° C | 24% | 1013.2 hPa | 0 mm | - | 828 W/m² | - |
| 1787778616 | 32.22° C | 25% | 1013.3 hPa | 0 mm | - | 830 W/m² | - |
| 1787778316 | 32.22° C | 25% | 1013.4 hPa | 0 mm | - | 833 W/m² | - |
| 1787778016 | 32.22° C | 24% | 1013.5 hPa | 0 mm | - | 837 W/m² | - |
| 1787777716 | 32.22° C | 25% | 1013.5 hPa | 0 mm | - | 842 W/m² | - |
| 1787777416 | 32.22° C | 28% | 1013.6 hPa | 0 mm | - | 847 W/m² | - |
* Rain latest hour (hover to see other rain measurements)
** Current wind speed in m/s (hover to see current wind gust speed)